This is the latest recevied weather packets stored in our database for station/object N1JOV-7. If no packets are shown the sender has not sent any weather packets the latest 10 day(s).
| Time | Temp. | Humidity | Pressure | Rain* | Wind** | Luminosity | Snow |
|---|---|---|---|---|---|---|---|
| 1787869862 | 23.33° C | 79% | 1015.9 hPa | 0 mm | - | - | - |
| 1787869262 | 23.89° C | 79% | 1016 hPa | 0 mm | - | - | - |
| 1787868662 | 23.33° C | 81% | 1016 hPa | 0 mm | - | - | - |
| 1787868062 | 22.78° C | 82% | 1016.1 hPa | 0 mm | - | - | - |
| 1787867462 | 22.78° C | 84% | 1016.4 hPa | 0 mm | - | - | - |
| 1787866861 | 22.78° C | 83% | 1016.6 hPa | 0 mm | - | - | - |
| 1787866261 | 22.78° C | 83% | 1016.9 hPa | 0 mm | - | - | - |
| 1787865661 | 22.78° C | 82% | 1016.9 hPa | 0 mm | - | - | - |
| 1787865061 | 23.33° C | 81% | 1017 hPa | 0 mm | - | - | - |
| 1787864461 | 23.89° C | 80% | 1016.8 hPa | 0 mm | - | - | - |
| 1787863862 | 23.89° C | 80% | 1017 hPa | 0 mm | - | - | - |
| 1787863262 | 23.89° C | 79% | 1016.9 hPa | 0 mm | - | - | - |
| 1787862662 | 25° C | 77% | 1016.9 hPa | 0 mm | - | - | - |
| 1787862062 | 25° C | 78% | 1017 hPa | 0 mm | - | - | - |
| 1787861462 | 25.56° C | 75% | 1016.9 hPa | 0 mm | - | - | - |
| 1787860862 | 25.56° C | 76% | 1016.9 hPa | 0 mm | - | - | - |
| 1787860261 | 25° C | 78% | 1017 hPa | 0 mm | - | - | - |
| 1787859661 | 24.44° C | 79% | 1017 hPa | 0 mm | - | - | - |
| 1787859061 | 24.44° C | 80% | 1017.1 hPa | 0 mm | - | - | - |
| 1787858461 | 23.33° C | 82% | 1017.2 hPa | 0 mm | - | - | - |
| 1787857862 | 23.33° C | 81% | 1017.2 hPa | 0 mm | - | - | - |
| 1787857262 | 23.89° C | 79% | 1017.1 hPa | 0 mm | - | - | - |
| 1787856662 | 23.89° C | 78% | 1017.1 hPa | 0 mm | - | - | - |
| 1787856062 | 25.56° C | 74% | 1017.1 hPa | 0 mm | - | - | - |
| 1787855462 | 26.67° C | 70% | 1017.2 hPa | 0 mm | - | - | - |
* Rain latest hour (hover to see other rain measurements)
** Current wind speed in m/s (hover to see current wind gust speed)